• In United Kingdom
  • List of Countries
  • For 7 days
  • Water Temperature
  • Satellite Maps
  • Weather Map
  • Weather Widgets
  • user-avatar
    Login

    Hourly Weather Verhovina

    Today, 16 December, Saturday

    Time Temperature Precipitation Wind Pressure Humidity
    00:00 +3°C° 0.6 mm 2 mps 686 mmHg 92%
    01:00 +4°C° 0.6 mm 1 mps 686 mmHg 93%
    02:00 +4°C° 0.6 mm 1 mps 685 mmHg 93%
    03:00 +4°C° 1.4 mm 1 mps 684 mmHg 94%
    04:00 +4°C° 1.4 mm 1 mps 684 mmHg 94%
    05:00 +4°C° 1.4 mm 1 mps 683 mmHg 95%
    06:00 +3°C° 0.9 mm 2 mps 682 mmHg 94%
    07:00 +4°C° 0.9 mm 2 mps 682 mmHg 93%
    08:00 +4°C° 0.9 mm 2 mps 682 mmHg 92%
    09:00 +4°C° 0.5 mm 2 mps 682 mmHg 90%
    10:00 +4°C° 0.5 mm 3 mps 682 mmHg 89%
    11:00 +4°C° 0.5 mm 3 mps 683 mmHg 88%
    12:00 +4°C° 0.5 mm 3 mps 683 mmHg 88%
    13:00 +4°C° 0.5 mm 3 mps 683 mmHg 88%
    14:00 +3°C° 0.5 mm 3 mps 684 mmHg 88%
    15:00 +3°C° 0.2 mm 3 mps 685 mmHg 89%
    16:00 +2°C° 0.2 mm 3 mps 685 mmHg 91%
    17:00 +2°C° 0.2 mm 2 mps 686 mmHg 92%
    18:00 +1°C° 0.1 mm 2 mps 687 mmHg 92%
    19:00 +1°C° 0.1 mm 2 mps 688 mmHg 92%
    20:00 -1°C° 0.1 mm 2 mps 688 mmHg 93%
    21:00 -1°C° 0.1 mm 2 mps 689 mmHg 93%
    22:00 -1°C° 0.1 mm 2 mps 690 mmHg 93%
    23:00 -2°C° 0.1 mm 2 mps 690 mmHg 93%

    Tomorrow, 17 December, Sunday

    Time Temperature Precipitation Wind Pressure Humidity
    00:00 0°C° 0.1 mm 1 mps 691 mmHg 93%
    01:00 0°C° 0.1 mm 1 mps 691 mmHg 94%
    02:00 0°C° 0.1 mm 1 mps 692 mmHg 94%
    03:00 0°C° 0.1 mm 1 mps 692 mmHg 94%
    04:00 -1°C° 0.1 mm 1 mps 692 mmHg 93%
    05:00 -1°C° 0.1 mm 1 mps 692 mmHg 93%
    06:00 -1°C° 0 mm 1 mps 692 mmHg 92%
    07:00 -1°C° 0 mm 1 mps 693 mmHg 92%
    08:00 -2°C° 0 mm 1 mps 693 mmHg 92%
    09:00 -1°C° 0 mm 1 mps 694 mmHg 89%
    10:00 -1°C° 0 mm 1 mps 694 mmHg 85%
    11:00 0°C° 0 mm 1 mps 694 mmHg 81%
    12:00 0°C° 0 mm 1 mps 694 mmHg 80%
    13:00 0°C° 0 mm 1 mps 694 mmHg 78%
    14:00 -1°C° 0 mm 2 mps 694 mmHg 77%
    15:00 0°C° 0 mm 1 mps 695 mmHg 81%
    16:00 -1°C° 0 mm 1 mps 695 mmHg 84%
    17:00 -1°C° 0 mm 1 mps 695 mmHg 88%
    18:00 -1°C° 0 mm 1 mps 696 mmHg 89%
    19:00 -2°C° 0 mm 1 mps 696 mmHg 90%
    20:00 -2°C° 0 mm 1 mps 696 mmHg 91%
    21:00 -2°C° 0 mm 1 mps 697 mmHg 90%
    22:00 -3°C° 0 mm 1 mps 697 mmHg 90%
    23:00 -3°C° 0 mm 1 mps 697 mmHg 90%

    Day after tomorrow, 18 December, Monday

    Time Temperature Precipitation Wind Pressure Humidity
    00:00 -3°C° 0 mm 1 mps 697 mmHg 89%
    01:00 -4°C° 0 mm 1 mps 697 mmHg 89%
    02:00 -4°C° 0 mm 1 mps 698 mmHg 89%
    03:00 -4°C° 0 mm 1 mps 698 mmHg 88%
    04:00 -4°C° 0 mm 1 mps 698 mmHg 88%
    05:00 -4°C° 0 mm 1 mps 698 mmHg 87%
    06:00 -4°C° 0 mm 1 mps 698 mmHg 87%
    07:00 -4°C° 0 mm 1 mps 698 mmHg 87%
    08:00 -4°C° 0 mm 1 mps 698 mmHg 87%
    09:00 -3°C° 0.1 mm 1 mps 698 mmHg 84%
    10:00 -3°C° 0.1 mm 1 mps 699 mmHg 81%
    11:00 -2°C° 0.1 mm 1 mps 699 mmHg 78%
    12:00 -2°C° 0.1 mm 1 mps 699 mmHg 76%
    13:00 -1°C° 0.1 mm 1 mps 699 mmHg 74%
    14:00 -3°C° 0.1 mm 2 mps 699 mmHg 72%
    15:00 -2°C° 0.1 mm 1 mps 699 mmHg 76%
    16:00 -3°C° 0.1 mm 1 mps 699 mmHg 80%
    17:00 -4°C° 0.1 mm 1 mps 699 mmHg 84%
    18:00 -4°C° 0 mm 1 mps 699 mmHg 85%
    19:00 -4°C° 0 mm 1 mps 699 mmHg 86%
    20:00 -6°C° 0 mm 1 mps 700 mmHg 87%
    21:00 -6°C° 0 mm 1 mps 700 mmHg 86%
    22:00 -6°C° 0 mm 1 mps 700 mmHg 86%
    23:00 -6°C° 0 mm 1 mps 700 mmHg 85%

    19 December, Tuesday

    Time Temperature Precipitation Wind Pressure Humidity
    00:00 -6°C° 0.1 mm 1 mps 700 mmHg 85%
    01:00 -4°C° 0.1 mm 1 mps 701 mmHg 84%
    02:00 -4°C° 0.1 mm 1 mps 701 mmHg 84%
    03:00 -4°C° 0.2 mm 1 mps 701 mmHg 85%
    04:00 -4°C° 0.2 mm 1 mps 701 mmHg 86%
    05:00 -3°C° 0.2 mm 1 mps 701 mmHg 86%
    06:00 -3°C° 0.2 mm 1 mps 702 mmHg 88%
    07:00 -3°C° 0.2 mm 1 mps 702 mmHg 89%
    08:00 -3°C° 0.2 mm 1 mps 703 mmHg 90%
    09:00 -3°C° 0.2 mm 1 mps 703 mmHg 88%
    10:00 -3°C° 0.2 mm 1 mps 703 mmHg 87%
    11:00 -2°C° 0.2 mm 1 mps 704 mmHg 85%
    12:00 -2°C° 0.1 mm 1 mps 704 mmHg 83%
    13:00 -4°C° 0.1 mm 2 mps 704 mmHg 81%
    14:00 -4°C° 0.1 mm 2 mps 704 mmHg 80%
    15:00 -2°C° 0.1 mm 1 mps 704 mmHg 83%
    16:00 -3°C° 0.1 mm 1 mps 704 mmHg 87%
    17:00 -4°C° 0.1 mm 1 mps 705 mmHg 90%
    18:00 -6°C° 0 mm 1 mps 705 mmHg 91%
    19:00 -6°C° 0 mm 1 mps 705 mmHg 91%
    20:00 -7°C° 0 mm 1 mps 705 mmHg 92%
    21:00 -7°C° 0 mm 1 mps 705 mmHg 91%
    22:00 -7°C° 0 mm 1 mps 705 mmHg 91%
    23:00 -8°C° 0 mm 1 mps 705 mmHg 90%

    20 December, Wednesday

    Time Temperature Precipitation Wind Pressure Humidity
    00:00 -8°C° 0 mm 1 mps 705 mmHg 89%
    01:00 -8°C° 0 mm 1 mps 705 mmHg 89%
    02:00 -8°C° 0 mm 1 mps 705 mmHg 88%
    03:00 -8°C° 0 mm 1 mps 705 mmHg 86%
    04:00 -8°C° 0 mm 1 mps 705 mmHg 85%
    05:00 -8°C° 0 mm 1 mps 704 mmHg 83%
    06:00 -8°C° 0 mm 1 mps 704 mmHg 82%
    07:00 -8°C° 0 mm 1 mps 704 mmHg 81%
    08:00 -8°C° 0 mm 1 mps 704 mmHg 80%
    09:00 -7°C° 0 mm 1 mps 704 mmHg 77%
    10:00 -6°C° 0 mm 1 mps 705 mmHg 74%
    11:00 -3°C° 0 mm 1 mps 705 mmHg 71%
    12:00 -3°C° 0 mm 1 mps 705 mmHg 70%
    13:00 -2°C° 0 mm 1 mps 704 mmHg 69%
    14:00 -2°C° 0 mm 1 mps 704 mmHg 67%
    15:00 -3°C° 0 mm 1 mps 704 mmHg 72%
    16:00 -4°C° 0 mm 1 mps 704 mmHg 77%
    17:00 -6°C° 0 mm 1 mps 704 mmHg 82%
    18:00 -6°C° 0 mm 1 mps 704 mmHg 83%
    19:00 -6°C° 0 mm 1 mps 704 mmHg 84%
    20:00 -6°C° 0 mm 1 mps 704 mmHg 85%
    21:00 -6°C° 0 mm 1 mps 704 mmHg 85%
    22:00 -6°C° 0 mm 1 mps 705 mmHg 85%
    23:00 -6°C° 0 mm 1 mps 705 mmHg 85%

    21 December, Thursday

    Time Temperature Precipitation Wind Pressure Humidity
    00:00 -6°C° 0 mm 1 mps 705 mmHg 85%
    01:00 -6°C° 0 mm 1 mps 704 mmHg 86%
    02:00 -6°C° 0 mm 1 mps 704 mmHg 86%
    03:00 -6°C° 0 mm 1 mps 704 mmHg 86%
    04:00 -6°C° 0 mm 1 mps 704 mmHg 87%
    05:00 -6°C° 0 mm 1 mps 704 mmHg 87%
    06:00 -6°C° 0 mm 1 mps 704 mmHg 86%
    07:00 -6°C° 0 mm 1 mps 704 mmHg 86%
    08:00 -6°C° 0 mm 1 mps 704 mmHg 86%
    09:00 -4°C° 0 mm 1 mps 704 mmHg 83%
    10:00 -3°C° 0 mm 1 mps 704 mmHg 80%
    11:00 -4°C° 0 mm 2 mps 704 mmHg 78%
    12:00 -4°C° 0.2 mm 2 mps 704 mmHg 78%
    13:00 -3°C° 0.2 mm 2 mps 703 mmHg 79%
    14:00 -3°C° 0.2 mm 2 mps 703 mmHg 80%
    15:00 -4°C° 0.5 mm 2 mps 702 mmHg 83%
    16:00 -4°C° 0.5 mm 2 mps 702 mmHg 87%
    17:00 -4°C° 0.5 mm 2 mps 702 mmHg 90%
    18:00 -4°C° 0.6 mm 2 mps 702 mmHg 91%
    19:00 -2°C° 0.6 mm 1 mps 702 mmHg 92%
    20:00 -2°C° 0.6 mm 1 mps 702 mmHg 93%
    21:00 -2°C° 0.4 mm 1 mps 702 mmHg 93%
    22:00 -2°C° 0.4 mm 1 mps 702 mmHg 93%
    23:00 -2°C° 0.4 mm 1 mps 702 mmHg 93%
    Show more